Regional Weather Roundup
Issued by NWS Jackson, KY

Home | Current Version | Previous Version | Graphics & Text | Print | Product List | Glossary On
Versions: 1 2 3 4 5 6 7 8 9 10 11 12 13 14 15 16 17 18 19 20 21 22 23 24 25 26 27 28
000
ASUS43 KJKL 180310
RWRJKL

EAST KENTUCKY HOURLY WEATHER ROUNDUP
NATIONAL WEATHER SERVICE JACKSON KY
1100 PM EDT TUE OCT 17 2017

NOTE: "FAIR" INDICATES FEW OR NO CLOUDS BELOW 12,000 FEET WITH
NO SIGNIFICANT WEATHER AND/OR OBSTRUCTIONS TO VISIBILITY.

* THESE REPORTS ARE NOT UNDER NWS QUALITY CONTROL AND MAY NOT
  REPORT WEATHER SUCH AS PRECIPITATION AND FOG.

KYZ079-080-083-085-087-088-110-112-115-119-120-180400
...EASTERN KENTUCKY...

CITY           SKY/WX    TMP DP  RH WIND       PRES   REMARKS
JACKSON        CLEAR     52  39  61 CALM      30.31S
LONDON         CLEAR     46  43  89 CALM      30.31R
SOMERSET*      CLEAR     43  43 100 CALM      30.32R
MONTICELLO*    CLEAR     41  40  96 W9        30.33R
WILLIAMSBURG*  CLEAR     45  45 100 CALM      30.31S
MIDDLESBORO*   CLEAR     44  43  99 CALM      30.33S
HARLAN APT*    CLEAR     45  43  93 CALM      30.32F
PIKE CO APT*     N/A     51  40  67 S3        30.32S
BIG SANDY APT* CLEAR     48  44  88 CALM      30.31F
MOREHEAD APT*  CLEAR     46  41  81 S6        30.32S
$$

KYZ035-036-041-042-044-050-067-078-099-180400
...CENTRAL KENTUCKY...

CITY           SKY/WX    TMP DP  RH WIND       PRES   REMARKS
MT STERLING*   CLEAR     43  41  93 CALM      30.32S
FLEMING/MASON* CLEAR     54  38  55 S6        30.31S
DANVILLE*      CLEAR     45  43  93 CALM      30.31S
LEXINGTON      CLEAR     48  42  80 SE5       30.30R
FRANKFORT      CLEAR     45  40  82 CALM      30.28S
LOUISVILLE     PTCLDY    53  45  74 CALM      30.28R
LEBANON*         N/A     54  41  62 CALM      30.29S
GLASGOW*       CLEAR     45  45 100 CALM      30.29R
BOWLING GREEN  CLEAR     48  46  93 CALM      30.28S
$$

KYZ091>093-OHZ055-061-077-WVZ005-015-034-035-042-180400
...SOUTHERN OHIO/WEST VIRGINIA...

CITY           SKY/WX    TMP DP  RH WIND       PRES   REMARKS
COVINGTON      PTCLDY    47  45  93 S5        30.28R
COLUMBUS       CLEAR     51  42  71 S3        30.28R
DAYTON         CLEAR     53  41  63 CALM      30.28R
WILMINGTON     CLEAR     48  41  76 SW3       30.28S
HUNTINGTON     CLEAR     46  42  86 SE3       30.30S
CHARLESTON     CLEAR     45  41  86 CALM      30.31S
PINEVILLE*     CLEAR     42  40  92 MISG      30.38S
BECKLEY        CLEAR     43  35  73 CALM      30.33S
BLUEFIELD      CLEAR     47  32  56 CALM      30.34S
LOGAN CO APT*    N/A     50  41  71 CALM      30.31S
$$

VAZ002-007-008-TNZ017-027-036-066-071-180400
...SOUTHWEST VIRGINIA/EAST TENNESSEE...

CITY           SKY/WX    TMP DP  RH WIND       PRES   REMARKS
WISE*          CLEAR     52  36  54 E3        30.34S
JONESVILLE*      N/A     41  41 100 CALM      30.34S
ABINGDON*      CLEAR     48  41  76 CALM      30.32S
BRISTOL        CLEAR     43  42  97 CALM      30.32R
MORRISTOWN*    CLEAR     48  41  76 CALM      30.30S
SEVIERVILLE*   CLEAR     46  45  93 CALM      30.30S
KNOXVILLE      PTCLDY    49  46  90 CALM      30.29R
LAFOLLETTE*    CLEAR     45  45 100 CALM      30.34S
OAK RIDGE      CLEAR     48  47  96 CALM      30.31S
CROSSVILLE     CLOUDY    44  41  89 CALM      30.31R
NASHVILLE      PTCLDY    51  45  79 CALM      30.28R
$$

...KEY TO REMARKS...
VSB - VISIBILITY IN MILES
WCI - WIND CHILL INDEX
HX  - HEAT INDEX

$$




USA.gov is the U.S. government's official web portal to all federal, state and local government web resources and services.